(260559) = 2003 TD27 = 2005 EH211

Discovered at Catalina on 2005-03-04 by CSS.

Orbit

Orbit type: Main Belt

Note: WebGL enabled browser required.

epoch2023-09-13.0
epoch JD2460200.5
perihelion date2022-04-24.82665
perihelion JD2459694.32665
argument of perihelion (°)302.67884
ascending node (°)228.82886
inclination (°)7.14980
eccentricity0.0506679
perihelion distance (AU)2.1523661
Tisserand w.r.t. Jupiter3.6
ΔV w.r.t. Earth (km/sec)9.4
semimajor axis (AU)2.2672425
mean anomaly (°)146.13564
mean daily motion (°/day)0.28870670
aphelion distance (AU)2.382
period (years)3.41
P-vector [x]-0.98410895
P-vector [y]0.17320971
P-vector [z]-0.03908925
Q-vector [x]-0.15083700
Q-vector [y]-0.93161803
Q-vector [z]-0.33066003
absolute magnitude17.21
phase slope0.15
uncertainty0
referenceMPEC 2023-R06
observations used462
oppositions13
arc length (days)7785
first opposition used2002
last opposition used2023
residual rms (arc-secs)0.73
perturbers coarse indicatorM-v
perturbers precise indicator003Ek
first observation date used2002-05-11.0
last observation date used2023-09-03.0
computer nameMPCLINUX
JD of orbit computation2456581.729823
perihelion JD uncertainty (days)1.4219E-04
argument of perihelion uncertainty (°)5.7035E-05
ascending node uncertainty (°)4.2202E-05
inclination uncertainty (°)6.3314E-06
eccentricity uncertainty 6.1118E-08
perihelion distance uncertainty (AU)1.3626E-07
Minimum Orbit Intersection Distances (in AU)
for orbit epoch: 2460200.5, reference: E2023-RH5
Mercury1.74052
Venus1.44564
Earth1.16295
Mars0.5494
Jupiter2.59847
Saturn6.79075
Uranus16.3124
Neptune27.4852

Observations

465 total observations over interval: 2002 05 11.31384 – 2023 09 15.292822
These data are available for download (format description).

Date (UT) J2000 RA J2000 Dec Magn Location Ref
2002 05 11.31384 15 32 50.13 -18 12 03.1 19.3   704 – Lincoln Laboratory ETS, New Mexico MPS 178505
2002 05 11.32882 15 32 49.21 -18 11 54.6 19.6   704 – Lincoln Laboratory ETS, New Mexico MPS 178505
2002 05 11.34471 15 32 48.18 -18 11 49.1 19.3   704 – Lincoln Laboratory ETS, New Mexico MPS 178505
2002 05 11.35949 15 32 47.25 -18 11 42.1 19.4   704 – Lincoln Laboratory ETS, New Mexico MPS 178505
2002 05 17.26279 15 27 00.58 -17 25 45.4 20.0   644 – Palomar Mountain/NEAT MPS 178505
2002 05 17.26943 15 27 00.15 -17 25 42.1 19.9   644 – Palomar Mountain/NEAT MPS 178505
2002 05 17.33857 15 26 55.95 -17 25 10.1 19.9   644 – Palomar Mountain/NEAT MPS 178505
2002 05 17.35084 15 26 55.18 -17 25 04.0 20.1   644 – Palomar Mountain/NEAT MPS 178505
2002 05 17.40264 15 26 52.05 -17 24 39.7 20.2   644 – Palomar Mountain/NEAT MPS 178505
2002 05 17.41324 15 26 51.42 -17 24 34.3 19.9   644 – Palomar Mountain/NEAT MPS 178505
2003 10 01.28090 00 50 13.78 +13 16 37.0 20.4 V 691 – Steward Observatory, Kitt Peak-Spacewatch MPS 109838
2003 10 01.30694 00 50 12.31 +13 16 24.4 20.7 V 691 – Steward Observatory, Kitt Peak-Spacewatch MPS 109838
2003 10 01.33310 00 50 10.82 +13 16 11.9 20.6 V 691 – Steward Observatory, Kitt Peak-Spacewatch MPS 109838
2003 10 18.12199 00 35 04.83 +10 47 34.5 19.6 R H36 – Sandlot Observatory, Scranton MPS 109838
2003 10 18.13196 00 35 04.40 +10 47 29.7 19.2 R H36 – Sandlot Observatory, Scranton MPS 109838
2003 10 18.13958 00 35 03.95 +10 47 24.6 19.8 R H36 – Sandlot Observatory, Scranton MPS 109838
2003 10 18.14748 00 35 03.55 +10 47 20.7 20.5 R H36 – Sandlot Observatory, Scranton MPS 109838
2003 10 26.09425 00 29 00.11 +09 35 10.8 21.4 V 691 – Steward Observatory, Kitt Peak-Spacewatch MPS 130830
2003 10 26.12164 00 28 58.92 +09 34 56.6 21.2 V 691 – Steward Observatory, Kitt Peak-Spacewatch MPS 130830
2003 10 26.14865 00 28 57.76 +09 34 42.1 21.8 V 691 – Steward Observatory, Kitt Peak-Spacewatch MPS 130830
2005 03 04.27965 10 45 42.00 -05 01 19.8 18.6 R 703 – Catalina Sky Survey MPS 129333
2005 03 04.28977 10 45 41.40 -05 01 15.8 19.2 R 703 – Catalina Sky Survey MPS 129333
2005 03 04.30013 10 45 40.78 -05 01 09.4 17.9 R 703 – Catalina Sky Survey MPS 129333
2005 03 04.31045 10 45 40.24 -05 01 05.4 18.2 R 703 – Catalina Sky Survey MPS 129333
2005 03 07.25801 10 42 57.47 -04 38 25.6 19.7   704 – Lincoln Laboratory ETS, New Mexico MPS 129333
2005 03 07.26969 10 42 56.73 -04 38 17.0 20.4   704 – Lincoln Laboratory ETS, New Mexico MPS 129333
2005 03 07.29302 10 42 55.50 -04 38 07.9 20.1   704 – Lincoln Laboratory ETS, New Mexico MPS 129333
2005 03 07.30537 10 42 54.81 -04 38 01.0 20.2   704 – Lincoln Laboratory ETS, New Mexico MPS 129333
2005 03 13.23469 10 37 40.59 -03 48 59.1 19.1   703 – Catalina Sky Survey MPS 129333
2005 03 13.24112 10 37 40.26 -03 48 54.8 18.8   703 – Catalina Sky Survey MPS 129333
2005 03 13.24758 10 37 39.93 -03 48 51.3 19.1   703 – Catalina Sky Survey MPS 129333
2005 03 13.25400 10 37 39.58 -03 48 49.0 19.2   703 – Catalina Sky Survey MPS 129334
2005 04 04.22958 10 24 36.43 -00 43 57.0 19.1 R 703 – Catalina Sky Survey MPS 130830
2005 04 04.23788 10 24 36.10 -00 43 51.9 18.9 R 703 – Catalina Sky Survey MPS 130830
2005 04 04.24639 10 24 36.03 -00 43 48.1 19.4 R 703 – Catalina Sky Survey MPS 130830
2005 04 04.25448 10 24 35.82 -00 43 43.3 20.5 R 703 – Catalina Sky Survey MPS 130830
2006 08 16.21233 21 10 25.85 -03 17 15.6 20.0 R 644 – Palomar Mountain/NEAT MPS 177056
2006 08 16.23284 21 10 24.65 -03 17 22.0 20.5 R 644 – Palomar Mountain/NEAT MPS 177056
2006 08 16.25457 21 10 23.37 -03 17 29.0 20.2 R 644 – Palomar Mountain/NEAT MPS 177056
2010 10 08.399640 02 35 41.529 +19 03 18.29 20.73 w F51 – Pan-STARRS 1, Haleakala MPS 365512
2010 10 08.417780 02 35 40.731 +19 03 12.30 20.91 w F51 – Pan-STARRS 1, Haleakala MPS 365512
2010 10 08.436027 02 35 39.921 +19 03 06.16 20.78 w F51 – Pan-STARRS 1, Haleakala MPS 365512
2010 10 08.455106 02 35 39.075 +19 02 59.72 20.70 w F51 – Pan-STARRS 1, Haleakala MPS 365512
2010 10 10.542831 02 34 07.946 +18 50 50.01 21.18 g F51 – Pan-STARRS 1, Haleakala MPS 365512
2010 10 10.554412 02 34 07.413 +18 50 45.81 21.19 g F51 – Pan-STARRS 1, Haleakala MPS 365512
2010 10 11.41170 02 33 28.33 +18 45 31.4 20.1 V G96 – Mt. Lemmon Survey MPS 351185
2010 10 11.41873 02 33 27.97 +18 45 28.8 19.8 V G96 – Mt. Lemmon Survey MPS 351185
2010 10 11.42571 02 33 27.68 +18 45 26.6 19.8 V G96 – Mt. Lemmon Survey MPS 351185
2010 10 11.43267 02 33 27.32 +18 45 23.7 20.1 V G96 – Mt. Lemmon Survey MPS 351185
2010 10 14.556699 02 30 56.708 +18 25 16.35 20.61 i F51 – Pan-STARRS 1, Haleakala MPS 365512
2010 10 14.568201 02 30 56.113 +18 25 11.44 20.68 i F51 – Pan-STARRS 1, Haleakala MPS 365512
2010 10 28.91119 02 17 35.46 +16 34 33.8 19.5 R 461 – University of Szeged, Piszkesteto Stn. (Konkol MPS 351185
2010 10 28.92001 02 17 34.95 +16 34 29.2   461 – University of Szeged, Piszkesteto Stn. (Konkol MPS 351185
2010 11 03.19476 02 12 24.98 +15 49 08.0 19.6 V 703 – Catalina Sky Survey MPS 353760
2010 11 03.19934 02 12 24.69 +15 49 03.0 19.2 V 703 – Catalina Sky Survey MPS 353760
2010 11 03.20391 02 12 24.48 +15 49 01.9 19.9 V 703 – Catalina Sky Survey MPS 353760
2010 11 03.20848 02 12 24.15 +15 48 59.8 19.2 V 703 – Catalina Sky Survey MPS 353760
2010 11 03.455505 02 12 09.568 +15 46 52.14 20.28 w F51 – Pan-STARRS 1, Haleakala MPS 365512
2010 11 03.468339 02 12 08.789 +15 46 45.41 20.28 w F51 – Pan-STARRS 1, Haleakala MPS 365512
2010 11 03.480927 02 12 08.028 +15 46 38.79 20.30 w F51 – Pan-STARRS 1, Haleakala MPS 365512
2010 11 06.27075 02 09 28.13 +15 22 22.7 20.1   704 – Lincoln Laboratory ETS, New Mexico MPS 355324
2010 11 06.28328 02 09 27.37 +15 22 15.3 19.9   704 – Lincoln Laboratory ETS, New Mexico MPS 355324
2010 11 06.29581 02 09 26.66 +15 22 08.3 19.7   704 – Lincoln Laboratory ETS, New Mexico MPS 355324
2010 11 08.289642 02 07 35.574 +15 04 49.99 20.61 g F51 – Pan-STARRS 1, Haleakala MPS 365512
2010 11 08.300974 02 07 34.935 +15 04 44.20 20.57 g F51 – Pan-STARRS 1, Haleakala MPS 365512
2010 11 14.314564 02 02 20.659 +14 13 44.22 20.53 r F51 – Pan-STARRS 1, Haleakala MPS 365512
2010 11 14.327086 02 02 20.020 +14 13 38.09 20.41 r F51 – Pan-STARRS 1, Haleakala MPS 365512
2010 12 03.31539 01 51 19.45 +12 01 39.2 20.9 V 291 – LPL/Spacewatch II MPS 358869
2010 12 03.32775 01 51 19.21 +12 01 35.3 20.9 V 291 – LPL/Spacewatch II MPS 358869
2010 12 03.34342 01 51 18.88 +12 01 29.8 20.9 V 291 – LPL/Spacewatch II MPS 358869
2011 01 03.11443 01 56 01.17 +10 54 49.8 20.3 V G96 – Mt. Lemmon Survey MPS 363345
2011 01 03.12480 01 56 01.53 +10 54 49.5 20.4 V G96 – Mt. Lemmon Survey MPS 363345
2011 01 03.13336 01 56 01.82 +10 54 51.5 20.3 V G96 – Mt. Lemmon Survey MPS 363345
2011 01 03.14969 01 56 02.40 +10 54 50.0 21.3 V G96 – Mt. Lemmon Survey MPS 363345
2012 03 16.50757 12 51 50.087 -14 43 09.10 19.6 r F51 – Pan-STARRS 1, Haleakala MPS 418327
2012 03 16.51983 12 51 49.517 -14 43 04.76 19.6 i F51 – Pan-STARRS 1, Haleakala MPS 418327
2012 03 16.53257 12 51 48.915 -14 43 00.07 19.6 i F51 – Pan-STARRS 1, Haleakala MPS 418327
2012 03 21.49276 12 47 57.059 -14 10 18.20 20.3 g F51 – Pan-STARRS 1, Haleakala MPS 418327
2012 03 21.50486 12 47 56.438 -14 10 12.86 20.3 g F51 – Pan-STARRS 1, Haleakala MPS 418327
2012 03 23.31993 12 46 26.01 -13 56 48.0 19.3 R H15 – ISON-NM Observatory, Mayhill MPS 418327
2012 03 23.33454 12 46 25.16 -13 56 41.5 19.3 R H15 – ISON-NM Observatory, Mayhill MPS 418327
2012 03 23.34974 12 46 24.34 -13 56 34.2 19.6 R H15 – ISON-NM Observatory, Mayhill MPS 418327
2012 03 23.36377 12 46 23.71 -13 56 27.7 19.7 R H15 – ISON-NM Observatory, Mayhill MPS 418327
2012 03 25.26698 12 44 46.68 -13 41 35.4 18.4 V 703 – Catalina Sky Survey MPS 420125
2012 03 25.27211 12 44 46.21 -13 41 33.7 19.4 V 703 – Catalina Sky Survey MPS 420125
2012 03 25.27712 12 44 45.99 -13 41 28.8 19.6 V 703 – Catalina Sky Survey MPS 420125
2012 03 25.28221 12 44 45.60 -13 41 28.2 19.2 V 703 – Catalina Sky Survey MPS 420125
2012 04 14.33696 12 27 38.906 -10 34 28.25 19.3 w F51 – Pan-STARRS 1, Haleakala MPS 421746
2012 04 14.35182 12 27 38.190 -10 34 19.48 19.3 w F51 – Pan-STARRS 1, Haleakala MPS 421746
